Flag for Slovakia Weather past 2 weeks in Bratislava, Slovakia

Now
63 °F

Clear.


Feels Like: 63 °F
Forecast: 63 / 86 °F
Wind: 3 mph from Northeast

Location: Bratislava Ivanka

Current Time: Jul 1, 2015 at 2:17:59 AM

Latest Report: Jul 1, 2015 at 2:00 AM


Visibility: 10 mi

Pressure: 30.15 "Hg

Humidity: 73%

Dew point: 54 °F

Location of BratislavaLocation

Historic Weather in Bratislava — Graph

°F

Bratislava temperature yesterday

Maximum temperature yesterday: 82 °F (at 4:00 PM)
Minimum temperature yesterday: 54 °F (at 5:00 AM)
Average temperature yesterday: 69 °F

Past Weeks' High & Low Weather Summary

 TemperatureHumidityPressure
High82 °F (Jun 30, 4:00 PM)94% (Jun 23, 1:30 AM)30.24 "Hg (Jun 23, 1:30 AM)
Low48 °F (Jun 18, 4:00 AM)26% (Jun 30, 4:00 PM)29.77 "Hg (Jun 23, 4:00 AM)
Average64 °F59%30.04 "Hg
* Reported Jun 16 1:00 AM — Jul 1 1:00 AM, Bratislava, Weather by CustomWeather, © 2015

Note: Actual official high and low records may vary slightly from our data, if they occured in-between our weather recording intervals... More about our weather records

Advertising

Bratislava weather history for previous 24 hours

 ConditionsComfort  
Time TempWeatherWind HumidityBarometerVisibility
1:00 AM
Wed, Jul 1
63 °FClear.2 mph77%30.15 "Hg10 mi
12:30 AM64 °FClear.1 mph73%30.15 "Hg10 mi
12:00 AM64 °FClear.1 mph73%30.15 "Hg10 mi
11:30 PM
Tue, Jun 30
66 °FClear.No wind64%30.15 "Hg10 mi
11:00 PM68 °FClear.1 mph60%30.15 "Hg10 mi
10:30 PM68 °FClear.2 mph60%30.15 "Hg10 mi
10:00 PM72 °FClear.3 mph57%30.12 "Hg10 mi
9:30 PM70 °FSunny.5 mph57%30.12 "Hg10 mi
9:00 PM73 °FPassing clouds.5 mph50%30.12 "HgN/A
8:30 PM77 °FSunny.3 mph42%30.09 "Hg10 mi
8:00 PM77 °FSunny.3 mph44%30.09 "Hg10 mi
7:00 PM81 °FSunny.6 mph32%30.09 "Hg10 mi
6:30 PM82 °FSunny.6 mph28%30.09 "Hg10 mi
6:00 PM82 °FPassing clouds.7 mph28%30.09 "HgN/A
5:00 PM82 °FPassing clouds.7 mph26%30.09 "HgN/A
4:30 PM82 °FPassing clouds.7 mph26%30.09 "HgN/A
4:00 PM82 °FPassing clouds.7 mph26%30.12 "HgN/A
3:00 PM81 °FPassing clouds.5 mph30%30.12 "HgN/A
2:30 PM81 °FPassing clouds.7 mph30%30.12 "HgN/A
2:00 PM81 °FSunny.3 mph32%30.15 "Hg10 mi
1:30 PM81 °FPassing clouds.10 mph32%30.15 "HgN/A
1:00 PM79 °FSunny.2 mph39%30.15 "Hg10 mi
12:30 PM79 °FSunny.3 mph39%30.15 "Hg10 mi
12:00 PM77 °FSunny.3 mph42%30.18 "Hg10 mi
11:30 AM75 °FPassing clouds.7 mph44%30.18 "HgN/A
11:00 AM75 °FPassing clouds.6 mph44%30.18 "HgN/A
10:30 AM73 °FPassing clouds.1 mph47%30.18 "HgN/A
10:00 AM73 °FSunny.1 mph44%30.18 "Hg10 mi
9:30 AM73 °FSunny.1 mph44%30.18 "Hg10 mi
9:00 AM73 °FSunny.2 mph47%30.18 "Hg10 mi
8:30 AM68 °FSunny.1 mph60%30.18 "Hg10 mi
8:00 AM64 °FSunny.1 mph68%30.18 "Hg10 mi
7:30 AM63 °FSunny.1 mph77%30.18 "Hg10 mi
7:00 AM61 °FSunny.No wind72%30.18 "Hg10 mi
6:30 AM59 °FLight fog.5 mph77%30.18 "HgN/A
6:00 AM57 °FLight fog.1 mph82%30.18 "HgN/A
5:30 AM54 °FLight fog.2 mph88%30.15 "HgN/A
5:00 AM54 °FLight fog.1 mph88%30.15 "HgN/A
4:30 AM55 °FSleet. Light fog.1 mph82%30.15 "HgN/A
4:00 AM55 °FSleet. Light fog.No wind82%30.15 "HgN/A
3:30 AM55 °FFog.1 mph82%30.15 "HgN/A
3:00 AM57 °FFog.1 mph82%30.15 "HgN/A
2:30 AM57 °FFog.2 mph82%30.18 "HgN/A
2:00 AM57 °FFog.2 mph82%30.18 "HgN/A
Weather by CustomWeather, © 2015

See weather overviewHow to use our weather pages